Starlink 31462

operational
NORAD ID: 59466 Int'l Des: 2024-068 Owner: SPXS Country: US Constellation: starlink
LEOCIRCULAR

Starlink 31462について

説明を読み込み中...

リアルタイム位置

3D地球を読み込み中...

次回通過

高度履歴

Altitude vs Time

uPlot chart will show altitude changes over time

軌道要素

1 59466U 24068M 25256.88500308 .00000311 00000-0 20833-4 0 9997
2 59466 43.0047 312.9251 0001370 269.4949 90.5746 15.27578069 81489
Epoch: Sep 13, 2025 • Age: 56 hours

現在のステータス

高度 493.9 km
速度 7.62 km/s
衛星直下点 -39.40°S, 161.58°E
打ち上げ日 Apr 10, 2024
運用期間 1.4 years
タイプ internet

技術仕様

分類 Payload
質量 730.00 kg
乾燥質量 700.00 kg
総質量 730.00 kg
長さ 0.30 m
直径 4.10 m
スパン 29.00 m
形状 Box + pan
製造者 SPXS
バスタイプ Starlink V2M
フェーズステータス In Orbit
所有者/国 SPXS/US

大規模コンステレーション

Loading constellations...